Content
SEND FEEDBACK

Daily
Averages
Monthly
Summary
Canada

VANCOUVER, BRITISH COLUMBIA


Home > North America > Canada > British Columbia
Elevation: 2 meters     Latitude: 49 11N     Longitude: 123 10W

WEATHER
 
SELECT A DAY
Number of Records: 249,541;   Date Range: 5/15/97 - 8/10/14
 
SHARE

PRINT THIS DATA

[ ← Previous Day ]
WEATHER ALMANAC - 25 MAY, 2013
[ Next Day → ]
[ °F ]   °C
Weather ElementAverageHighLow
Temperature11.7 °C15 °C (2:15 pm)10 °C (12:35 am)
Dewpoint8.2 °C9 °C (12:35 am)7 °C (5:15 pm)
Humidity80.2 %94 % (12:35 am)63 % (2:15 pm)
Barometer1015.9 hPa1016.6 hPa (8:15 am)1015.2 hPa (8:55 pm)
Wind Speed9 km/h18.5 km/h (6:55 am)
Weather ElementAverage
Visibility15.8 km
Wind DirectionSSE (154.8 °)

Weather ElementTotal
Precipitation---
Heating Degree Days5.8 (Base 18.3)
Growing Degree Days2.5 (Base 10)
Averaged from 71 records on 25 May, 2013
WEATHER CONDITIONS BREAKOUT
WIND DIRECTION BREAKOUT
WEATHER BY HOUR - 25 MAY, 2013
[ °F ]   °C
Local TimeTemperatureDewpointHumidityBarometerVisibilityWind DirectionWind SpeedGust SpeedPrecipitationEventsConditions
12:35 AM10 °C9 °C94 %1016.3 hPa8 kmSSW (200°)9.3 km/hRainLight Rain
12:55 AM10 °C9 °C94 %1016.3 hPa16.1 kmCalmMostly Cloudy
1:15 AM10 °C9 °C94 %1015.9 hPa14.5 kmNorthRainLight Rain
1:35 AM10 °C8 °C87 %1015.9 hPa16.1 kmCalmPartly Cloudy
1:55 AM10 °C8 °C87 %1015.9 hPa16.1 kmSouth (180°)7.4 km/hScattered Clouds
2:15 AM10 °C8 °C87 %1015.9 hPa16.1 kmSSW (200°)16.7 km/hMostly Cloudy
2:35 AM10 °C8 °C87 %1015.6 hPa16.1 kmSSW (210°)14.8 km/hScattered Clouds
2:55 AM10 °C9 °C94 %1015.6 hPa16.1 kmSSW (200°)14.8 km/hClear
3:15 AM10 °C8 °C87 %1015.6 hPa16.1 kmSSW (200°)14.8 km/hMostly Cloudy
3:35 AM10 °C9 °C94 %1015.6 hPa16.1 kmSouth (190°)14.8 km/hOvercast
3:55 AM10 °C9 °C94 %1015.6 hPa16.1 kmSSW (200°)16.7 km/hOvercast
4:15 AM10 °C9 °C94 %1015.9 hPa16.1 kmSSW (200°)13 km/hOvercast
4:35 AM10 °C8 °C87 %1015.9 hPa16.1 kmSouth (190°)13 km/hOvercast
4:55 AM10 °C8 °C87 %1015.6 hPa16.1 kmSouth (190°)11.1 km/hOvercast
5:15 AM10 °C8 °C87 %1015.6 hPa16.1 kmSouth (180°)7.4 km/hOvercast
5:35 AM10 °C8 °C87 %1015.6 hPa16.1 kmSouth (180°)7.4 km/hOvercast
5:55 AM10 °C8 °C87 %1015.6 hPa14.5 kmSouth (190°)16.7 km/hMostly Cloudy
6:15 AM10 °C8 °C87 %1015.9 hPa14.5 kmSouth (190°)14.8 km/hScattered Clouds
6:35 AM10 °C8 °C87 %1015.9 hPa16.1 kmSouth (190°)14.8 km/hMostly Cloudy
6:55 AM10 °C8 °C87 %1015.9 hPa16.1 kmSSW (200°)18.5 km/hMostly Cloudy
7:15 AM10 °C8 °C87 %1015.9 hPa14.5 kmSouth (190°)14.8 km/hMostly Cloudy
7:35 AM10 °C8 °C87 %1016.3 hPa14.5 kmSouth (190°)13 km/hMostly Cloudy
7:55 AM10 °C8 °C87 %1016.3 hPa16.1 kmSouth (190°)11.1 km/hOvercast
8:15 AM10 °C8 °C87 %1016.6 hPa16.1 kmSouth (190°)18.5 km/hOvercast
8:35 AM10 °C8 °C87 %1016.6 hPa16.1 kmSouth (190°)14.8 km/hOvercast
8:55 AM11 °C9 °C88 %1016.3 hPa16.1 kmSouth (180°)18.5 km/hScattered Clouds
9:15 AM11 °C8 °C82 %1016.3 hPa16.1 kmSouth (180°)13 km/hMostly Cloudy
9:35 AM12 °C8 °C77 %1016.3 hPa16.1 kmSSW (200°)14.8 km/hMostly Cloudy
9:55 AM12 °C8 °C77 %1016.6 hPa16.1 kmSouth (180°)9.3 km/hScattered Clouds
10:15 AM12 °C8 °C77 %1016.6 hPa16.1 kmSSE (160°)7.4 km/hMostly Cloudy
10:35 AM12 °C8 °C77 %1016.6 hPa16.1 kmSouth (190°)13 km/hMostly Cloudy
10:55 AM12 °C8 °C77 %1016.6 hPa16.1 kmSSW (200°)13 km/hOvercast
11:15 AM11 °C9 °C88 %1016.6 hPa16.1 kmSouth (190°)11.1 km/hOvercast
11:35 AM12 °C9 °C82 %1016.6 hPa14.5 kmSouth (190°)7.4 km/hOvercast
11:55 AM12 °C9 °C82 %1016.6 hPa14.5 kmSSE (150°)7.4 km/hMostly Cloudy
12:15 PM13 °C8 °C72 %1016.6 hPa16.1 kmSSW (200°)14.8 km/hMostly Cloudy
12:35 PM13 °C8 °C72 %1016.3 hPa16.1 kmSouth (190°)14.8 km/hOvercast
12:55 PM14 °C8 °C67 %1016.3 hPa16.1 kmSSW (200°)14.8 km/hMostly Cloudy
1:15 PM14 °C8 °C67 %1016.3 hPa16.1 kmSSW (200°)16.7 km/hPartly Cloudy
1:35 PM14 °C8 °C67 %1016.3 hPa16.1 kmSSW (200°)14.8 km/hPartly Cloudy
1:55 PM14 °C8 °C67 %1016.3 hPa16.1 kmSSW (200°)11.1 km/hScattered Clouds
2:15 PM15 °C8 °C63 %1016.3 hPa16.1 kmSSW (200°)11.1 km/hPartly Cloudy
2:35 PM14 °C9 °C72 %1016.3 hPa16.1 kmNNW (340°)13 km/hScattered Clouds
2:55 PM13 °C9 °C77 %1016.3 hPa16.1 kmNNW (330°)9.3 km/hMostly Cloudy
3:15 PM12 °C8 °C77 %1016.3 hPa16.1 kmNNW (340°)11.1 km/hMostly Cloudy
3:35 PM12 °C8 °C77 %1016.3 hPa16.1 kmNorth (350°)5.6 km/hMostly Cloudy
3:55 PM12 °C8 °C77 %1016.3 hPa16.1 kmNorth (10°)5.6 km/hScattered Clouds
4:15 PM12 °C8 °C77 %1016.3 hPa16.1 kmCalmPartly Cloudy
4:35 PM12 °C8 °C77 %1016.3 hPa16.1 kmCalmPartly Cloudy
4:55 PM13 °C8 °C72 %1015.9 hPa16.1 kmNorth (350°)11.1 km/hScattered Clouds
5:15 PM13 °C7 °C67 %1015.9 hPa16.1 kmNorth (350°)7.4 km/hClear
5:35 PM13 °C8 °C72 %1015.9 hPa16.1 kmCalmClear
5:55 PM14 °C8 °C67 %1015.9 hPa16.1 kmNorth (350°)7.4 km/hClear
6:15 PM13 °C8 °C72 %1015.9 hPa16.1 kmCalmClear
6:35 PM13 °C8 °C72 %1015.6 hPa16.1 kmCalmClear
6:55 PM13 °C8 °C72 %1015.6 hPa16.1 kmNorth (350°)5.6 km/hClear
7:15 PM13 °C8 °C72 %1015.6 hPa16.1 kmCalmClear
7:35 PM13 °C8 °C72 %1015.6 hPa16.1 kmCalmClear
7:55 PM14 °C8 °C67 %1015.6 hPa16.1 kmCalmClear
8:15 PM13 °C9 °C77 %1015.6 hPa16.1 kmCalmClear
8:35 PM13 °C8 °C72 %1015.6 hPa16.1 kmCalmClear
8:55 PM12 °C8 °C77 %1015.2 hPa16.1 kmCalmClear
9:15 PM12 °C8 °C77 %1015.2 hPa16.1 kmCalmClear
9:35 PM11 °C8 °C82 %1015.6 hPa16.1 kmCalmScattered Clouds
9:55 PM12 °C8 °C77 %1015.6 hPa16.1 kmCalmMostly Cloudy
10:15 PM12 °C8 °C77 %1015.6 hPa16.1 kmNorthMostly Cloudy
10:35 PM12 °C9 °C82 %1015.6 hPa16.1 kmNorthPartly Cloudy
10:55 PM12 °C8 °C77 %1015.6 hPa16.1 kmSouth (190°)5.6 km/hClear
11:15 PM12 °C9 °C82 %1015.6 hPa16.1 kmSSW (200°)7.4 km/hRainLight Rain
11:35 PM12 °C9 °C82 %1015.2 hPa12.9 kmSSW (200°)9.3 km/hRainLight Rain
11:55 PM11 °C9 °C88 %1015.2 hPa11.3 kmSouth (180°)5.6 km/hRainLight Rain
Hourly data recorded from CZBB, located 0 kilometers away from Vancouver, British Columbia







STORIES FROM OUR PARTNERS